[[{"header":{"parameterUnit":"m.s-1","parameterCategory":1,"la1":30.2991,"la2":30.254,"lo1":-89.0895,"lo2":-89.0444,"dy":0.0017,"dx":0.0017,"nx":28,"ny":28,"refTime":"2023-10-04T21:00:00:Z","depth":0,"parameterNumber":2,"parameterNumberName":"U-component_of_WINDS"},"data":[0,0,0,0,0,0,0,0,0,0,0,0,0,0,0,0,0,0,0,0,0,0,0,0,0,0,0,0,0,0,0,0,0,0,0,0,0,0,0,0,0,0,0,0,0,0,0,0,0,0,0,0,0,0,0,0,0,0,-4.85,-4.8501,0,-4.8601,-4.8602,-4.8603,-4.8521,-4.8518,-4.8514,-4.8511,-4.8614,-4.8619,-4.8625,0,0,0,0,0,0,0,0,0,0,0,0,0,-4.8236,-4.8241,-4.85,-4.8501,-4.8503,-4.8601,-4.8602,-4.8604,-4.8522,-4.8518,-4.8514,-4.851,-4.8612,-4.8619,-4.8626,0,0,0,0,0,0,0,0,0,0,0,0,0,-4.8345,-4.8243,-4.85,-4.8474,-4.8472,-4.86,-4.8602,-4.8604,-4.8523,-4.8518,-4.8512,-4.8508,-4.8609,-4.8618,-4.8627,-4.8786,0,0,-4.8654,-4.8658,0,0,0,0,0,0,0,0,-4.8339,-4.8355,-4.8476,-4.8476,-4.8475,-4.8543,-4.8546,-4.8665,-4.8524,-4.8504,-4.8511,-4.8505,-4.8594,-4.8604,-4.8634,-4.879,-4.8795,-4.8655,-4.866,-4.8664,-4.8667,0,0,0,0,0,0,0,-4.8332,-4.835,-4.854,-4.8478,-4.8477,-4.8457,-4.8467,-4.8569,-4.8577,-4.8505,-4.8499,-4.8512,-4.8593,-4.8626,-4.8636,-4.8796,-4.8655,-4.8662,-4.8668,-4.8671,-4.9088,-4.9094,0,0,0,0,0,0,-4.8327,-4.8344,-4.8537,-4.8543,-4.8393,-4.8466,-4.8477,-4.8526,-4.8575,-4.8578,-4.8517,-4.8508,-4.8613,-4.8626,-4.8639,-4.8829,-4.8664,-4.8672,-4.8677,-4.9083,-4.909,-4.9096,0,0,0,0,0,0,-4.8322,-4.8345,-4.8533,-4.8442,-4.8465,-4.8476,-4.8532,-4.8531,-4.8564,-4.8584,-4.8585,-4.8549,-4.861,-4.8627,-4.875,-4.8832,-4.8676,-4.8684,-4.9076,-4.9085,-4.9093,-4.921,0,0,0,0,0,0,-4.8314,-4.8343,-4.8404,-4.8444,-4.847,-4.8642,-4.8537,-4.8537,-4.858,-4.857,-4.8615,-4.8618,-4.8607,-4.8737,-4.8759,-4.8841,-4.8691,-4.9069,-4.908,-4.909,-4.9199,-4.9222,-4.9241,0,0,0,0,0,-4.8305,-4.8433,-4.8408,-4.8431,-4.8546,-4.8647,-4.8662,-4.8647,-4.8587,-4.8648,-4.8661,-4.8616,-4.8819,-4.8751,-4.8774,-4.8861,-4.9063,-4.9077,-4.9089,-4.919,-4.9217,-4.9241,0,0,0,0,0,0,-4.8401,-4.8437,-4.841,-4.8554,-4.8598,-4.8633,-4.8709,-4.8677,-4.8738,-4.8726,-4.8705,-4.8716,-4.8846,-4.8865,-4.8788,-4.9017,-4.8932,-4.895,-4.9,-4.9026,-4.9047,-4.904,-4.8699,0,0,0,0,0,-4.8439,-4.8519,-4.8546,-4.8671,-4.8694,-4.8699,-4.8742,-4.8727,-4.8771,-4.879,-4.8811,-4.8856,-4.893,-4.8979,-4.9048,-4.9201,-4.921,-4.9272,-4.9293,-4.931,-4.9327,-4.941,-4.9438,-4.9138,-4.9138,-4.9138,0,0,-4.8519,-4.8548,-4.86,-4.8691,-4.8723,-4.8806,-4.8715,-4.8806,-4.8867,-4.8803,-4.8921,-4.8939,-4.8987,-4.9127,-4.9189,-4.9147,-4.9412,-4.9327,-4.934,-4.9348,-4.9426,-4.9455,-4.948,-4.9147,-4.9145,-4.9144,0,0,-4.8706,-4.8736,-4.8844,-4.8878,-4.8928,-4.893,-4.8956,-4.8997,-4.9006,-4.9124,-4.9079,-4.9151,-4.9278,-4.9315,-4.935,-4.9552,-4.9514,-4.9575,-4.9685,-4.9767,-4.9791,-4.9811,-4.9884,-4.9911,-4.9591,-4.9591,-4.9592,0,-4.8798,-4.8921,-4.8903,-4.8998,-4.904,-4.8986,-4.9096,-4.913,-4.92,-4.923,-4.9181,-4.9341,-4.937,-4.9517,-4.9567,-4.9597,-4.9626,-4.957,-4.9789,-4.9809,-4.9829,-4.9898,-4.9925,-4.9599,-4.9598,-4.9597,-4.9596,0,-4.9032,-4.9119,-4.9199,-4.927,-4.932,-4.9422,-4.9419,-4.9473,-4.9453,-4.9461,-4.9582,-4.9615,-4.969,-4.9723,-4.9705,-4.9869,-4.9841,-4.9791,-4.9705,-4.9865,-4.993,-4.9956,-4.9609,-4.9606,-4.9604,-4.9602,0,0,-4.9283,-4.9342,-4.9372,-4.9404,-4.9456,-4.9522,-4.9621,-4.9695,-4.9742,-4.9792,-4.9875,-4.9984,-4.9939,-4.9979,-4.9964,-5.0036,-5.0195,-4.9977,-4.9978,-5.0017,-5.0379,-5.0417,-5.0448,-5.0169,-5.0174,-5.0178,-5.0375,0,-4.9473,-4.9646,-4.9633,-4.9797,-4.9877,-4.9827,-4.9914,-4.9955,-4.9965,-5.0034,-5.0043,-5.0122,-5.0055,-5.0079,-5.0148,-5.0161,-5.0267,-5.0147,-5.0247,-5.0251,-5.0237,-5.0481,-5.0522,-5.0705,-5.04,-5.0404,-5.0407,0,-4.9718,-4.9778,-4.995,-4.999,-5.0023,-5.0102,-5.0169,-5.0235,-5.0281,-5.0283,-5.0328,-5.0302,-5.0402,-5.0313,-5.0451,-5.0369,-5.0409,-5.0422,-5.0429,-5.0439,-5.0339,-5.0498,-5.0763,-5.0791,-5.0447,-5.0444,-5.0441,0,-4.9884,-5.0008,-5.0127,-5.0155,-5.0206,-5.0262,-5.0285,-5.0326,-5.0372,-5.043,-5.0459,-5.0529,-5.0567,-5.0621,-5.0614,-5.055,-5.0755,-5.0665,-5.076,-5.076,-5.0806,-5.0803,-5.1082,-5.0831,-5.083,-5.083,-5.0829,0,-5.0099,-5.0206,-5.0203,-5.0276,-5.0395,-5.0379,-5.0497,-5.0514,-5.0551,-5.0627,-5.0587,-5.0659,-5.0645,-5.0717,-5.0712,-5.0828,-5.0845,-5.085,-5.0847,-5.0854,-5.0853,-5.088,-5.0868,-5.0837,-5.0835,-5.0834,-5.0833,0,-5.0305,-5.0307,-5.0434,-5.0471,-5.0483,-5.057,-5.0601,-5.0671,-5.0677,-5.0773,-5.0795,-5.0805,-5.0888,-5.0886,-5.098,-5.0976,-5.1118,-5.1101,-5.1104,-5.11,-5.1195,-5.1187,-5.1502,-5.1543,-5.1264,-5.1267,-5.1269,0,-5.0442,-5.0524,-5.057,-5.0619,-5.0646,-5.0724,-5.0771,-5.0758,-5.0808,-5.0867,-5.093,-5.1008,-5.1071,-5.1205,-5.1221,-5.1292,-5.1277,-5.1382,-5.1287,-5.1291,-5.1279,-5.1275,-5.1283,-5.1401,-5.1404,-5.1407,-5.1409,0,-5.0685,-5.0682,-5.0751,-5.0822,-5.0878,-5.0933,-5.0982,-5.1024,-5.1017,-5.1075,-5.1159,-5.1208,-5.1304,-5.1383,-5.1452,-5.1476,-5.1442,-5.1439,-5.1464,-5.1472,-5.1471,-5.1474,-5.1155,-5.1432,-5.1429,-5.1428,-5.1426,-5.1425,-5.0861,-5.0932,-5.0976,-5.1055,-5.1091,-5.1139,-5.1206,-5.1221,-5.1292,-5.1369,-5.1357,-5.1452,-5.1496,-5.1585,-5.1615,-5.1689,-5.1652,-5.1689,-5.1698,-5.1708,-5.1719,-5.1459,-5.1701,-5.1701,-5.17,-5.1699,-5.1699,0,-5.1103,-5.1129,-5.1202,-5.1273,-5.1335,-5.1298,-5.1351,-5.1406,-5.1489,-5.1534,-5.1596,-5.1694,-5.177,-5.1792,-5.1866,-5.1921,-5.1907,-5.1941,-5.1937,-5.1943,-5.1748,-5.1718,-5.1951,-5.1951,-5.1951,-5.1951,-5.1951,-5.1951,-5.1236,-5.1354,-5.1357,-5.1493,-5.1518,-5.1611,-5.1645,-5.1688,-5.1724,-5.1834,-5.1898,-5.1912,-5.1948,-5.2024,-5.2093,-5.2097,-5.2127,-5.2167,-5.2165,-5.1982,-5.1957,-5.1933,-5.1905,-5.2173,-5.2174,-5.2355,-5.2357,-5.2358]},{"header":{"parameterUnit":"m.s-1","parameterCategory":1,"la1":30.2991,"la2":30.254,"lo1":-89.0895,"lo2":-89.0444,"dy":0.0017,"dx":0.0017,"nx":28,"ny":28,"refTime":"2023-10-04T21:00:00:Z","depth":0,"parameterNumber":3,"parameterNumberName":"V-component_of_WINDS"},"data":[0,0,0,0,0,0,0,0,0,0,0,0,0,0,0,0,0,0,0,0,0,0,0,0,0,0,0,0,0,0,0,0,0,0,0,0,0,0,0,0,0,0,0,0,0,0,0,0,0,0,0,0,0,0,0,0,0,0,0.7494,0.7496,0,0.7671,0.7673,0.7675,0.778,0.778,0.7781,0.7781,0.7966,0.797,0.7975,0,0,0,0,0,0,0,0,0,0,0,0,0,0.7253,0.7257,0.7494,0.7496,0.7498,0.767,0.7673,0.7675,0.778,0.778,0.7781,0.7782,0.7964,0.797,0.7975,0,0,0,0,0,0,0,0,0,0,0,0,0,0.7386,0.7258,0.7494,0.7571,0.758,0.767,0.7673,0.7676,0.778,0.778,0.7781,0.7782,0.7963,0.7969,0.7976,0.8003,0,0,0.7996,0.7999,0,0,0,0,0,0,0,0,0.7379,0.7395,0.7558,0.7566,0.7576,0.7704,0.7656,0.7786,0.778,0.7704,0.7781,0.7782,0.7878,0.7892,0.7924,0.8012,0.802,0.7997,0.8001,0.8004,0.8006,0,0,0,0,0,0,0,0.7369,0.7388,0.7564,0.756,0.7571,0.7599,0.7619,0.7681,0.7785,0.7711,0.7719,0.7738,0.7884,0.7917,0.7929,0.8023,0.7997,0.8003,0.8007,0.801,0.8147,0.8146,0,0,0,0,0,0,0.7347,0.738,0.7558,0.7569,0.7477,0.7603,0.7625,0.7662,0.7785,0.7804,0.7737,0.7742,0.7905,0.7921,0.7936,0.7979,0.8004,0.801,0.8014,0.8147,0.8147,0.8146,0,0,0,0,0,0,0.7341,0.7362,0.7551,0.7477,0.7503,0.7606,0.7647,0.7665,0.7699,0.7805,0.7825,0.7752,0.7906,0.7926,0.7987,0.7987,0.8013,0.8019,0.8148,0.8147,0.8147,0.8063,0,0,0,0,0,0,0.7334,0.7359,0.7369,0.7476,0.7507,0.7597,0.7647,0.7668,0.771,0.7718,0.7824,0.7842,0.7909,0.7976,0.7993,0.7996,0.8025,0.8148,0.8147,0.8147,0.8066,0.806,0.8054,0,0,0,0,0,0.7325,0.7339,0.7369,0.739,0.7521,0.7596,0.7614,0.7689,0.7709,0.7721,0.779,0.7839,0.7983,0.7981,0.8001,0.8007,0.8148,0.8148,0.8147,0.8069,0.8061,0.8054,0,0,0,0,0,0,0.7229,0.7354,0.7389,0.7437,0.7505,0.7614,0.7631,0.7678,0.7742,0.7748,0.7839,0.7863,0.7914,0.7967,0.7962,0.8042,0.8072,0.8075,0.8006,0.7999,0.7993,0.798,0.803,0,0,0,0,0,0.7214,0.7263,0.737,0.7403,0.7435,0.7527,0.7563,0.7615,0.769,0.7719,0.7792,0.7864,0.7927,0.7966,0.8029,0.8074,0.8101,0.8088,0.8082,0.8077,0.8079,0.8111,0.8107,0.8143,0.8143,0.8144,0,0,0.7182,0.7257,0.7282,0.7385,0.7444,0.7496,0.755,0.7602,0.7642,0.7728,0.7789,0.7845,0.7932,0.7986,0.8013,0.8031,0.8075,0.8076,0.807,0.8076,0.8109,0.8106,0.8103,0.8143,0.8143,0.8143,0,0,0.7152,0.7211,0.7247,0.7305,0.7393,0.7455,0.7463,0.7566,0.7606,0.7669,0.7736,0.7785,0.789,0.795,0.7994,0.7989,0.8037,0.8007,0.7975,0.8005,0.8003,0.8001,0.8002,0.8,0.8008,0.8008,0.8008,0,0.7102,0.718,0.7259,0.7307,0.7352,0.7432,0.747,0.7523,0.7627,0.7657,0.7676,0.7811,0.7874,0.7945,0.7944,0.7976,0.7991,0.7996,0.7996,0.7995,0.7994,0.7997,0.7996,0.8004,0.8005,0.8005,0.8005,0,0.7116,0.717,0.7188,0.7287,0.7333,0.7376,0.7463,0.7502,0.755,0.7611,0.7676,0.7756,0.7837,0.7858,0.7906,0.7937,0.7945,0.7978,0.8011,0.7985,0.7989,0.799,0.7998,0.8,0.8001,0.8002,0,0,0.7029,0.7173,0.7178,0.7225,0.733,0.7374,0.7422,0.7501,0.7534,0.7604,0.7648,0.7736,0.7768,0.7818,0.7874,0.79,0.7895,0.7931,0.7935,0.7923,0.7937,0.7913,0.7912,0.7927,0.7927,0.7928,0.7931,0,0.7016,0.7103,0.7177,0.7239,0.7291,0.7369,0.7411,0.7481,0.7539,0.7594,0.766,0.7721,0.7758,0.7789,0.7818,0.7889,0.7899,0.789,0.7972,0.7974,0.7949,0.7914,0.7887,0.7886,0.7932,0.7933,0.7933,0,0.7011,0.7078,0.7145,0.7247,0.7272,0.7308,0.7388,0.7438,0.7521,0.7562,0.7619,0.7677,0.7735,0.776,0.7842,0.7834,0.7872,0.7912,0.7914,0.7926,0.7952,0.7926,0.7887,0.7887,0.7935,0.7935,0.7935,0,0.6944,0.7051,0.7106,0.7143,0.7263,0.7287,0.7339,0.7422,0.7466,0.7537,0.7567,0.7643,0.7686,0.7745,0.7824,0.7835,0.7899,0.793,0.7937,0.7935,0.7948,0.7946,0.7916,0.7969,0.7969,0.7969,0.7969,0,0.6922,0.696,0.7078,0.7111,0.7158,0.7243,0.7287,0.7346,0.7419,0.7468,0.754,0.7584,0.7685,0.7742,0.7804,0.7864,0.7883,0.7919,0.7936,0.7914,0.7909,0.7941,0.7944,0.7969,0.7969,0.7969,0.7969,0,0.6855,0.6935,0.7,0.7108,0.7137,0.7166,0.726,0.7298,0.736,0.7421,0.744,0.754,0.7611,0.7696,0.7795,0.7837,0.7892,0.7916,0.7864,0.7874,0.7877,0.7876,0.7867,0.7872,0.7919,0.7918,0.7918,0,0.6837,0.6868,0.698,0.7017,0.7066,0.7125,0.717,0.7257,0.7301,0.7399,0.7425,0.7502,0.7568,0.768,0.7762,0.7839,0.7866,0.7858,0.7879,0.7857,0.7869,0.7867,0.7872,0.7853,0.7852,0.7851,0.785,0,0.6796,0.6834,0.6896,0.6973,0.7025,0.709,0.7158,0.7185,0.7285,0.7333,0.7406,0.7457,0.7559,0.7636,0.7724,0.778,0.7833,0.7843,0.7849,0.7828,0.7798,0.7817,0.7851,0.7843,0.7844,0.7844,0.7845,0.7845,0.6755,0.6787,0.6872,0.6939,0.7,0.7062,0.7103,0.7171,0.7234,0.7322,0.737,0.7443,0.7529,0.7652,0.7707,0.7767,0.7786,0.7793,0.7796,0.7797,0.7792,0.7787,0.7783,0.7784,0.7784,0.7784,0.7785,0,0.672,0.6778,0.684,0.6933,0.6987,0.703,0.7109,0.7152,0.7215,0.7289,0.7353,0.7439,0.7515,0.7604,0.7685,0.7717,0.7744,0.7736,0.7735,0.7748,0.777,0.7757,0.7713,0.7713,0.7713,0.7713,0.7713,0.7713,0.6708,0.6767,0.6815,0.6906,0.6965,0.7036,0.7078,0.7137,0.7197,0.7289,0.7352,0.7409,0.7491,0.758,0.7652,0.7677,0.7704,0.769,0.7721,0.774,0.7746,0.7752,0.7741,0.7694,0.7694,0.7696,0.7696,0.7696]}]]